CW3094 Weather Reports


time (UTC)temp
F
wind
direction
speed
knots
gust
knots
rain 1hr
in
rain 24hr
in
rain mn
in
humidity
%
barometer
mb
20260510225403 61 260 4.3 7.8 0.00 0.01 0.01 77 1012.2
20260510224404 62 284 2.6 6.1 0.00 0.01 0.01 77 1012.0
20260510223903 62 289 2.6 4.3 0.00 0.01 0.01 79 1012.0
20260510223404 62 256 2.6 6.1 0.00 0.01 0.01 78 1012.0
20260510222904 62 291 2.6 5.2 0.00 0.01 0.01 80 1012.1
20260510222403 61 301 3.5 6.1 0.00 0.02 0.01 80 1012.1
20260510221404 61 252 2.6 6.1 0.00 0.02 0.01 82 1012.1
20260510220404 61 287 4.3 6.1 0.00 0.03 0.01 82 1012.0
20260510215404 60 306 4.3 7.0 0.00 0.05 0.01 83 1012.0
20260510213904 60 263 3.5 6.1 0.00 0.07 0.01 84 1011.9
20260510212903 60 289 2.6 7.8 0.01 0.09 0.01 83 1011.9
20260510212404 60 289 2.6 5.2 0.01 0.10 0.01 84 1011.7
20260510211404 60 292 2.6 5.2 0.01 0.10 0.01 84 1011.7
20260510210904 60 266 2.6 6.1 0.01 0.10 0.01 82 1011.6
20260510204403 61 260 2.6 6.1 0.01 0.12 0.01 81 1011.7
20260510203903 62 285 2.6 5.2 0.01 0.12 0.01 78 1011.7
20260510203404 63 291 5.2 8.7 0.01 0.13 0.01 74 1011.7
20260510202904 63 267 3.5 11.3 0.00 0.12 0.00 68 1011.6
20260510202404 64 300 4.3 10.4 0.00 0.13 0.00 66 1011.5
20260510200903 66 299 4.3 13.0 0.00 0.17 0.00 58 1011.1
20260510195903 67 275 4.3 8.7 0.00 0.20 0.00 57 1011.1
20260510195404 68 292 2.6 11.3 0.00 0.22 0.00 53 1010.9
20260510194904 68 283 4.3 8.7 0.00 0.23 0.00 54 1011.0
20260510194403 68 263 6.1 10.4 0.00 0.25 0.00 54 1011.0
20260510193907 68 299 5.2 10.4 0.00 0.27 0.00 54 1011.1
20260510192404 69 293 4.3 7.0 0.00 0.31 0.00 56 1011.1
20260510190903 69 228 4.3 8.7 0.00 0.34 0.00 61 1011.2
20260510190404 68 294 3.5 10.4 0.00 0.35 0.00 62 1011.2
20260510185904 68 312 4.3 7.8 0.00 0.35 0.00 60 1011.3
20260510184404 68 274 4.3 7.8 0.00 0.35 0.00 59 1011.4
20260510183404 68 300 4.3 7.0 0.00 0.35 0.00 62 1011.4
20260510182904 68 239 4.3 7.8 0.00 0.35 0.00 62 1011.5
20260510181904 68 261 6.1 13.0 0.00 0.35 0.00 62 1011.4
20260510180904 68 281 5.2 13.0 0.00 0.35 0.00 61 1011.4
20260510175904 68 252 2.6 7.0 0.00 0.35 0.00 62 1011.4
20260510174403 67 293 1.7 6.1 0.00 0.35 0.00 64 1011.5
20260510173903 67 285 4.3 6.1 0.00 0.35 0.00 65 1011.4
20260510173404 67 300 2.6 5.2 0.00 0.35 0.00 66 1011.4
20260510172903 67 225 2.6 7.8 0.00 0.35 0.00 65 1011.6
20260510172404 66 252 3.5 7.0 0.00 0.35 0.00 65 1011.6
20260510171904 66 303 3.5 6.1 0.00 0.35 0.00 66 1011.5
20260510171404 67 287 2.6 4.3 0.00 0.35 0.00 64 1011.6
20260510170904 67 205 2.6 7.8 0.00 0.36 0.00 64 1011.7
20260510165904 68 257 4.3 7.0 0.00 0.36 0.00 66 1011.6
20260510165404 68 254 4.3 8.7 0.00 0.36 0.00 67 1011.6
20260510164904 67 168 2.6 7.8 0.00 0.36 0.00 66 1011.6
20260510164404 67 302 4.3 10.4 0.00 0.36 0.00 64 1011.7
20260510163904 67 245 3.5 7.0 0.00 0.36 0.00 66 1011.8
20260510162904 66 312 4.3 7.8 0.00 0.36 0.00 67 1011.9
20260510162404 66 271 5.2 7.8 0.00 0.36 0.00 68 1012.0
20260510161904 65 252 2.6 5.2 0.00 0.36 0.00 72 1012.0
20260510161404 65 311 2.6 5.2 0.00 0.37 0.00 72 1012.0
20260510160904 65 275 0.9 7.0 0.00 0.37 0.00 73 1012.1
20260510160404 65 194 1.7 5.2 0.00 0.37 0.00 72 1011.9
20260510155404 65 55 3.5 6.1 0.00 0.37 0.00 73 1012.0
20260510154904 65 213 2.6 6.1 0.00 0.37 0.00 77 1012.1
20260510154404 64 212 2.6 5.2 0.00 0.37 0.00 80 1012.1
20260510153904 64 221 2.6 6.1 0.00 0.37 0.00 78 1012.2
20260510153404 63 269 1.7 4.3 0.00 0.37 0.00 79 1012.3
20260510151904 63 306 3.5 6.1 0.00 0.37 0.00 81 1012.4
20260510151404 62 256 1.7 7.0 0.00 0.37 0.00 80 1012.4
20260510150904 62 268 2.6 6.1 0.00 0.37 0.00 82 1012.3
20260510150404 61 198 2.6 5.2 0.00 0.37 0.00 82 1012.4
20260510145904 60 265 3.5 7.0 0.00 0.37 0.00 86 1012.4
20260510145404 60 278 1.7 4.3 0.00 0.37 0.00 84 1012.2
20260510144904 60 276 1.7 5.2 0.00 0.37 0.00 83 1012.2
20260510143404 60 254 3.5 6.1 0.00 0.37 0.00 84 1012.3
20260510142904 60 251 3.5 6.1 0.00 0.37 0.00 83 1012.2
20260510142404 59 239 4.3 6.1 0.00 0.37 0.00 86 1012.3
20260510141405 58 253 3.5 5.2 0.00 0.37 0.00 89 1012.4
20260510140904 58 237 2.6 5.2 0.00 0.37 0.00 89 1012.4
20260510140405 57 240 3.5 6.1 0.00 0.37 0.00 90 1012.3
20260510135404 56 229 1.7 4.3 0.00 0.37 0.00 95 1012.3
20260510134904 56 237 1.7 4.3 0.00 0.37 0.00 94 1012.3
20260510133906 55 242 2.6 4.3 0.00 0.37 0.00 94 1012.3
20260510132904 55 186 1.7 2.6 0.00 0.37 0.00 96 1012.2
20260510132405 54 193 0.9 2.6 0.00 0.37 0.00 97 1012.2
20260510131905 54 232 0.0 0.0 0.00 0.37 0.00 96 1012.3
20260510131404 53 232 0.0 0.9 0.00 0.37 0.00 97 1012.2
20260510130905 53 193 0.9 1.7 0.00 0.37 0.00 97 1012.3
20260510130404 53 231 0.0 1.7 0.00 0.37 0.00 97 1012.4
20260510125904 53 238 0.9 1.7 0.00 0.37 0.00 97 1012.3
20260510125404 52 209 0.0 0.9 0.00 0.37 0.00 97 1012.1
20260510124905 52 210 0.0 0.0 0.00 0.37 0.00 97 1012.0
20260510124404 52 210 0.0 0.0 0.00 0.37 0.00 98 1012.0
20260510123404 52 210 0.0 0.0 0.00 0.37 0.00 98 1012.0
20260510122405 52 0 0.0 0.0 0.00 0.37 0.00 98 1011.9
20260510121904 52 0 0.0 0.0 0.00 0.37 0.00 98 1012.0
20260510120904 52 0 0.0 0.9 0.00 0.37 0.00 98 1011.9
20260510120404 51 31 0.0 0.9 0.00 0.37 0.00 98 1011.9
20260510115905 51 280 0.0 0.0 0.00 0.37 0.00 98 1011.9
20260510115404 51 280 0.0 0.0 0.00 0.37 0.00 98 1011.9
20260510114904 51 280 0.0 0.0 0.00 0.37 0.00 98 1011.9
20260510114406 51 280 0.0 0.9 0.00 0.38 0.00 98 1011.9
20260510113909 51 285 0.0 0.9 0.00 0.38 0.00 98 1011.8
20260510113404 50 301 0.0 0.9 0.00 0.38 0.00 98 1011.8
20260510112904 50 198 0.0 0.0 0.00 0.38 0.00 98 1011.6
20260510111904 50 198 0.0 0.0 0.00 0.38 0.00 98 1011.6
20260510111404 50 198 0.0 0.0 0.00 0.38 0.00 98 1011.5
20260510110905 50 198 0.0 0.9 0.00 0.38 0.00 98 1011.6
20260510110405 50 235 0.0 0.9 0.00 0.38 0.00 98 1011.5
20260510105404 50 243 0.0 1.7 0.00 0.38 0.00 98 1011.3
20260510103905 50 267 0.0 0.9 0.00 0.38 0.00 98 1011.3
20260510102904 50 241 0.0 0.0 0.00 0.39 0.00 98 1011.2
20260510102404 50 241 0.0 0.0 0.00 0.39 0.00 98 1011.2
20260510101904 50 241 0.0 0.9 0.00 0.39 0.00 98 1011.0
20260510100904 50 215 0.9 2.6 0.00 0.40 0.00 98 1011.1
20260510095905 50 249 1.7 2.6 0.00 0.40 0.00 98 1010.9
20260510094904 50 215 1.7 4.3 0.00 0.41 0.00 98 1010.5
20260510094404 50 209 1.7 4.3 0.00 0.41 0.00 98 1010.5
20260510093904 50 260 0.9 2.6 0.00 0.41 0.00 98 1010.5
20260510093405 50 179 0.0 0.9 0.00 0.41 0.00 98 1010.7
20260510092404 50 247 0.9 2.6 0.00 0.41 0.00 98 1011.0
20260510091904 50 244 0.9 1.7 0.00 0.42 0.00 98 1010.8
20260510091405 50 222 0.9 1.7 0.00 0.42 0.00 98 1010.9
20260510090905 50 233 0.9 0.9 0.00 0.42 0.00 98 1011.0
20260510090404 50 271 1.7 2.6 0.00 0.43 0.00 98 1011.0
20260510085905 50 247 0.9 2.6 0.00 0.43 0.00 98 1010.8
20260510085405 50 233 0.9 1.7 0.00 0.44 0.00 98 1011.0
20260510084905 50 247 0.9 1.7 0.00 0.44 0.00 98 1011.1
20260510084404 50 243 0.9 1.7 0.00 0.44 0.00 98 1011.1
20260510083404 50 269 1.7 6.1 0.00 0.45 0.00 98 1011.1
20260510082904 50 285 1.7 4.3 0.00 0.46 0.00 98 1011.1
20260510082405 50 296 1.7 2.6 0.00 0.46 0.00 98 1011.0
20260510081904 50 254 0.0 2.6 0.00 0.47 0.00 98 1011.0
20260510081404 50 246 0.0 0.9 0.00 0.47 0.00 98 1011.0
20260510080904 50 269 0.0 0.9 0.00 0.48 0.00 98 1011.1
20260510075904 50 232 0.0 2.6 0.00 0.48 0.00 98 1011.0
20260510075404 50 239 0.0 1.7 0.00 0.48 0.00 98 1011.2
20260510074904 50 247 0.9 1.7 0.00 0.48 0.00 98 1011.1
20260510074404 50 292 0.9 1.7 0.00 0.48 0.00 98 1011.1
20260510073404 50 296 1.7 5.2 0.00 0.48 0.00 98 1011.0
20260510072904 50 220 0.0 0.9 0.00 0.48 0.00 98 1010.9
20260510070905 50 223 0.0 0.9 0.00 0.48 0.00 98 1010.8
20260510070405 50 213 0.0 0.9 0.00 0.48 0.00 98 1010.7
20260510065905 50 222 0.9 1.7 0.00 0.48 0.00 98 1010.8
20260510065404 50 262 0.9 1.7 0.00 0.48 0.00 98 1010.9
20260510064904 50 220 0.0 0.0 0.00 0.48 0.00 98 1010.8
20260510064405 50 220 0.0 0.0 0.00 0.48 0.00 98 1010.8
20260510063405 50 220 0.0 0.0 0.00 0.48 0.00 98 1010.9
20260510061905 50 220 0.0 0.0 0.00 0.48 0.00 98 1010.7
20260510061405 50 220 0.0 0.0 0.00 0.48 0.00 98 1010.7
20260510060905 50 220 0.0 0.0 0.00 0.48 0.00 98 1010.5
20260510055405 51 220 0.0 0.0 0.00 0.48 0.00 98 1010.4
20260510054905 51 220 0.0 0.0 0.00 0.48 0.00 98 1010.4
20260510054405 51 220 0.0 0.0 0.00 0.48 0.00 98 1010.4
20260510053904 51 220 0.0 0.0 0.00 0.48 0.00 98 1010.5
20260510052404 50 220 0.0 0.0 0.00 0.48 0.00 98 1010.5
20260510051904 50 220 0.0 0.0 0.00 0.48 0.00 98 1010.5
20260510051404 50 220 0.0 0.0 0.00 0.48 0.00 98 1010.7
20260510050904 50 220 0.0 0.0 0.00 0.48 0.00 98 1010.8
20260510045855 50 220 0.0 0.0 0.00 0.48 0.00 97 1010.7
20260510045355 50 220 0.0 0.0 0.00 0.48 0.00 97 1010.7
20260510044855 50 220 0.0 0.0 0.00 0.48 0.00 97 1010.7
20260510044355 50 220 0.0 0.0 0.00 0.48 0.00 97 1010.5
20260510043855 50 220 0.0 0.0 0.00 0.48 0.00 97 1010.7
20260510043355 50 220 0.0 0.0 0.00 0.48 0.00 97 1010.7
20260510042355 51 220 0.0 0.0 0.00 0.48 0.00 97 1010.5
20260510041855 51 220 0.0 0.0 0.00 0.48 0.00 97 1010.4
20260510041355 51 220 0.0 0.0 0.00 0.48 0.00 97 1010.5
20260510040855 51 220 0.0 0.0 0.00 0.48 0.00 97 1010.5
20260510040406 51 220 0.0 0.0 0.00 0.48 0.00 97 1010.5
20260510035855 51 220 0.0 0.0 0.00 0.48 0.48 97 1010.5
20260510035355 51 220 0.0 0.0 0.00 0.48 0.48 97 1010.5
20260510034856 51 220 0.0 0.0 0.00 0.48 0.48 97 1010.7
20260510034355 51 220 0.0 0.0 0.00 0.48 0.48 97 1010.7
20260510033856 51 220 0.0 0.0 0.00 0.48 0.48 97 1010.7
20260510033355 51 220 0.0 0.0 0.00 0.48 0.48 97 1010.7
20260510032355 51 220 0.0 0.0 0.00 0.48 0.48 97 1010.7
20260510031855 51 220 0.0 0.0 0.00 0.48 0.48 97 1010.5
20260510030855 51 220 0.0 4.3 0.00 0.48 0.48 97 1010.9
20260510030356 51 220 0.9 1.7 0.00 0.48 0.48 97 1010.9
20260510025855 51 219 0.0 1.7 0.00 0.48 0.48 97 1010.9
20260510025355 51 246 0.0 0.0 0.00 0.48 0.48 97 1010.7
20260510024855 51 246 0.0 0.0 0.00 0.48 0.48 97 1010.5
20260510024356 51 246 0.0 0.0 0.00 0.48 0.48 97 1010.5
20260510023855 51 246 0.0 0.0 0.00 0.48 0.48 97 1010.4
20260510023356 51 246 0.0 0.0 0.00 0.48 0.48 97 1010.3
20260510022856 51 246 0.0 0.0 0.00 0.48 0.48 97 1010.4
20260510022355 51 246 0.0 0.9 0.00 0.48 0.48 97 1010.3
20260510021855 51 246 0.0 0.0 0.00 0.48 0.48 97 1010.4
20260510021356 51 246 0.0 0.9 0.00 0.48 0.48 97 1010.5
20260510020855 51 305 0.9 1.7 0.00 0.48 0.48 97 1010.5
20260510020355 52 136 0.0 0.9 0.00 0.48 0.48 97 1010.5
20260510015856 52 92 0.0 4.3 0.00 0.48 0.48 97 1010.7
20260510015356 52 79 0.0 0.0 0.00 0.48 0.48 97 1010.8
20260510014356 52 79 0.0 0.0 0.00 0.48 0.48 97 1010.8
20260510013855 52 79 0.0 0.0 0.00 0.48 0.48 97 1010.8
20260510013356 52 79 0.0 0.0 0.00 0.48 0.48 97 1010.8
20260510012855 52 79 0.0 0.0 0.00 0.48 0.48 97 1010.8
20260510012356 52 79 0.0 0.0 0.00 0.48 0.48 97 1010.8
20260510011855 52 79 0.0 0.0 0.00 0.48 0.48 97 1010.8
20260510011356 52 79 0.0 0.0 0.00 0.48 0.48 97 1010.7
20260510010357 52 193 0.0 0.0 0.00 0.48 0.48 97 1010.3
20260510005855 52 193 0.0 0.0 0.00 0.48 0.48 97 1010.2
20260510005355 52 216 0.0 0.9 0.00 0.48 0.48 97 1010.2
20260510004855 52 251 0.0 0.9 0.00 0.48 0.48 97 1010.1
20260510004356 52 24 0.0 0.0 0.00 0.48 0.48 97 1010.1
20260510003856 52 24 0.0 0.0 0.00 0.48 0.48 97 1010.0
20260510003356 52 24 0.0 0.0 0.00 0.48 0.48 97 1010.0
20260510002856 52 24 0.0 1.7 0.00 0.48 0.48 97 1010.0
20260510002356 52 236 0.0 1.7 0.00 0.48 0.48 97 1010.0
20260510001856 52 236 0.0 0.0 0.00 0.48 0.48 97 1010.0
20260510001355 52 236 0.9 2.6 0.00 0.48 0.48 97 1009.9
20260509235855 52 136 1.7 5.2 0.00 0.48 0.48 97 1009.7
20260509235355 52 48 0.9 5.2 0.00 0.48 0.48 97 1009.7
20260509234856 52 136 0.0 2.6 0.00 0.48 0.48 97 1009.7
20260509234355 52 333 0.9 2.6 0.00 0.48 0.48 97 1009.8
20260509233855 52 255 0.9 1.7 0.00 0.48 0.48 97 1009.8
20260509233355 52 183 0.9 5.2 0.00 0.48 0.48 97 1009.7
20260509232855 52 84 0.9 4.3 0.00 0.48 0.48 97 1009.7
20260509232356 52 256 0.9 4.3 0.01 0.48 0.48 97 1009.8
20260509231355 52 247 0.9 4.3 0.01 0.48 0.48 97 1009.9
20260509230855 52 213 0.9 4.3 0.01 0.48 0.48 97 1010.0
20260509230355 52 247 0.9 4.3 0.02 0.48 0.48 97 1010.0
20260509225856 52 168 0.9 1.7 0.03 0.48 0.48 97 1010.1